Flag for Hungary Weather past 2 weeks in Pécs, Hungary

Now
60 °F

Overcast.


Feels Like: 59 °F
Forecast: 52 / 61 °F
Wind: 6 mph from Northwest

Location: Pecs / Pogany

Current Time: May 26, 2015 at 6:45:32 PM

Latest Report: May 26, 2015 at 6:00 PM


Visibility: 19 mi

Pressure: 29.77 "Hg

Humidity: 80%

Dew point: 53 °F

Location of PécsLocation

Historic Weather in Pécs — Graph

°F

Pécs temperature yesterday

Maximum temperature yesterday: 58 °F (at 12:00 AM)
Minimum temperature yesterday: 53 °F (at 7:00 AM)
Average temperature yesterday: 55 °F

Past Weeks' High & Low Weather Summary

 TemperatureHumidityPressure
High84 °F (May 19, 4:00 PM)93% (May 22, 10:00 AM)30.36 "Hg (May 22, 10:00 AM)
Low49 °F (May 12, 12:00 AM)30% (May 19, 3:00 PM)29.71 "Hg (May 26, 5:00 AM)
Average61 °F72%29.97 "Hg
* Reported May 11 5:00 PM — May 26 5:00 PM, Pécs, Weather by CustomWeather, © 2015

Note: Actual official high and low records may vary slightly from our data, if they occured in-between our weather recording intervals... More about our weather records

Advertising

Pécs weather history for previous 24 hours

 ConditionsComfort  
Time TempWeatherWind HumidityBarometerVisibility
5:00 PM
Tue, May 26
59 °FLow clouds.5 mph85%29.78 "Hg19 mi
4:00 PM58 °FLow clouds.6 mph89%29.78 "Hg19 mi
3:00 PM58 °FLow clouds.5 mph88%29.78 "Hg16 mi
2:00 PM58 °FLow clouds.5 mph89%29.78 "Hg11 mi
1:00 PM57 °FLight rain. Low clouds.6 mph92%29.77 "Hg4 mi
12:00 PM57 °FRain. Low clouds.5 mph93%29.76 "Hg4 mi
11:00 AM57 °FRain. Low clouds.3 mph93%29.75 "Hg4 mi
10:00 AM57 °FLight rain. Low clouds.5 mph93%29.73 "Hg3 mi
9:00 AM57 °FLow clouds.3 mph91%29.72 "Hg5 mi
8:00 AM56 °FDrizzle. Low clouds.3 mph92%29.72 "Hg4 mi
7:00 AM55 °FLight rain. Low clouds.3 mph93%29.72 "Hg2 mi
6:00 AM56 °FLight rain. Overcast.5 mph93%29.71 "Hg2 mi
5:00 AM56 °FLight rain. Overcast.3 mph93%29.71 "Hg2 mi
4:00 AM56 °FLight rain. Overcast.3 mph93%29.72 "Hg2 mi
3:00 AM56 °FFog.3 mph93%29.73 "Hg2 mi
2:00 AM56 °FFog.3 mph93%29.73 "Hg2 mi
1:00 AM56 °FFog.3 mph93%29.75 "Hg2 mi
12:00 AM57 °FOvercast.3 mph93%29.76 "Hg2 mi
10:00 PM
Mon, May 25
57 °FLight rain. Low clouds.2 mph92%29.78 "Hg2 mi
9:00 PM56 °FLight rain. Low clouds.3 mph92%29.78 "Hg2 mi
8:00 PM56 °FLight rain. Low clouds.3 mph92%29.78 "Hg2 mi
7:00 PM56 °FLight rain. Low clouds.5 mph92%29.78 "Hg4 mi
6:00 PM56 °FLight rain. Low clouds.3 mph92%29.79 "Hg3 mi
Weather by CustomWeather, © 2015

See weather overviewHow to use our weather pages